Regional Weather Roundup
Issued by NWS Newport/Morehead, NC

Current Version | Previous Version | Text Only | Print | Product List | Glossary On
Versions: 1 2 3 4 5 6 7 8 9 10 11 12 13 14 15 16 17 18 19 20 21 22 23 24 25 26 27 28 29 30 31 32 33 34 35 36 37 38 39 40 41 42 43 44 45 46 47 48 49 50
000 ASUS42 KMHX 310413 RWRMHX WEATHER ROUNDUP FOR EASTERN NORTH CAROLINA NATIONAL WEATHER SERVICE NEWPORT/MOREHEAD CITY NC 1200 AM EDT FRI JUL 31 2015 NOTE: "FAIR" INDICATES FEW OR NO CLOUDS BELOW 12,000 FEET WITH NO SIGNIFICANT WEATHER AND/OR OBSTRUCTIONS TO VISIBILITY NCZ015>017-031-032-045>047-102-103-310500- NORTH COAST CITY SKY/WX TMP DP RH WIND PRES REMARKS EDENTON N/A 80 74 83 S8 29.90F ELIZABETH CITY PTCLDY 80 75 84 S6 29.90F KITTY HAWK MOCLDY 82 75 79 S7 29.90S MANTEO MOCLDY 82 75 81 SW12 29.91S $$ NCZ045>047-081-094-103-104-310500- CENTRAL COAST CITY SKY/WX TMP DP RH WIND PRES REMARKS FRISCO MOCLDY 82 76 81 S10 29.91F SWANQUARTER N/A 82 N/A N/A S10 29.88S $$ NCZ095-097-098-100-101-310500- SOUTHERN COAST CITY SKY/WX TMP DP RH WIND PRES REMARKS BEAUFORT PTCLDY 79 77 94 CALM 29.90F CEDAR ISLAND N/A 81 N/A N/A S2 29.94S JACKSONVILLE PTCLDY 77 75 93 SW3 29.90F PINEY ISLAND PTCLDY N/A N/A N/A MISG 29.90F WILMINGTON CLEAR 79 75 87 CALM 29.91S $$ NCZ011>013-027>030-043-044-078>080-089-090>093-098-310500- COASTAL PLAIN CITY SKY/WX TMP DP RH WIND PRES REMARKS AHOSKIE PTCLDY 77 74 91 S3 29.90S CLINTON PTCLDY 80 76 89 CALM 29.91F ELIZABETHTOWN MOCLDY 81 75 83 S5 29.91S GOLDSBORO MOCLDY 81 77 88 S2 29.89S GREENVILLE MOCLDY 81 77 89 S8 29.92F HAVELOCK PTCLDY 78 75 90 CALM 29.91F KENANSVILLE CLEAR N/A N/A N/A CALM 29.92S KINSTON PTCLDY 80 75 86 SW3 29.91F NEW BERN PTCLDY 77 74 90 CALM 29.91F RICHLANDS CLEAR 75 70 83 CALM 29.91F ROCKY MOUNT PTCLDY 77 75 93 S3 29.91S WASHINGTON PTCLDY 79 74 86 S5 29.91F WHITEVILLE MOCLDY 80 75 84 CALM 29.91F $$ AMZ130-135-150-152-154-156-158-170-250-252-270-ANZ085-086-088-633-658-670-310500- MARINE OBSERVATIONS STATION/POSITION TIME TEMP WIND PRES WAVE SWELL AIR SEA DIR/SP/G HT/PER HT/PER (UTC) (F) (DEG/KT/KT) (MB) (FT/S) (FT/S) CHESAPEAKE LIGHT 0400 81 200/ 18/ 20 1012.6 64 E VA BEACH 0350 82 82 200/ 16/ 17 1012.3 5/ 6 3/ 7 DUCK 0300 81 64 180/ 14/ 16 1011.7 2 E DUCK 0311 70 N/A 2/11 2/11 OREGON INLET 0300 81 86 160/ 9/ 14 1012.9 13E OREGON INLT 0400 81 N/A 4/10 HATTERAS CG 0300 82 84 160/ 7/ 11 1013.0 DIAMOND BUOY 0350 83 86 160/ 16/ 17 1012.9 5/ 8 3/ 8 CAPE LOOKOUT 0400 82 140/ 5/ 6 1011.9 BEAUFORT LAB 0300 81 83 160/ 4/ 5 1012.2 30 SE NEW RVR IN NOT AVBL 27 SE WRIGHTSVLE 0300 79 83 160/ 4/ 6 N/A 5 SE WRIGHTSVLE 0308 83 83 180/ 4/ 6 1012.6 225 S CAPE HAT 0350 83 81 220/ 19/ 23 1013.7 11/ 9 41 SE CHARLESTON 0350 85 85 250/ 12/ 14 1012.7 3/ 8 2/ 8 $$

USA.gov is the U.S. government's official web portal to all federal, state and local government web resources and services.